GW5810 Weather Reports


time (UTC)temp
C
wind
direction
speed
KPH
gust
KPH
rain 1hr
cm
rain 24hr
cm
rain mn
cm
humidity
%
barometer
mb
20260506094520 11 95 6.4 16.1 0.05 0.10 0.10 80 1011.9
20260506094019 10 304 6.4 17.7 0.05 0.10 0.10 80 1012.0
20260506093519 10 4 6.4 17.7 0.05 0.10 0.10 81 1012.1
20260506093020 10 325 6.4 19.3 0.05 0.10 0.10 81 1012.0
20260506092519 10 350 4.8 19.3 0.08 0.10 0.10 82 1011.7
20260506092017 10 325 4.8 17.7 0.08 0.10 0.10 84 1011.5
20260506091516 10 23 6.4 17.7 0.10 0.10 0.10 84 1011.5
20260506091018 10 255 8.0 17.7 0.10 0.10 0.10 84 1011.7
20260506090517 9 325 6.4 17.7 0.10 0.10 0.10 86 1012.0
20260506090016 9 347 4.8 20.9 0.08 0.10 0.10 89 1012.2
20260506085517 9 32 4.8 20.9 0.08 0.08 0.08 90 1012.5
20260506085329 9 52 4.8 17.7 0.05 0.05 0.05 91 1012.5
20260506084516 9 347 4.8 16.1 0.05 0.05 0.05 92 1012.5
20260506084017 9 43 4.8 17.7 0.05 0.05 0.05 93 1012.2
20260506083517 8 321 6.4 17.7 0.05 0.05 0.05 93 1012.4
20260506083018 9 335 6.4 17.7 0.03 0.03 0.03 93 1012.4
20260506082517 8 305 6.4 17.7 0.03 0.03 0.03 93 1012.5
20260506082019 8 324 6.4 16.1 0.03 0.03 0.03 93 1012.5
20260506081517 8 345 6.4 16.1 0.00 0.00 0.00 93 1012.5
20260506081018 8 343 8.0 17.7 0.00 0.00 0.00 94 1012.4
20260506080515 8 337 8.0 19.3 0.00 0.00 0.00 94 1012.4
20260506073509 9 348 8.0 19.3 0.00 0.00 0.00 90 1012.2
20260506073342 9 345 8.0 19.3 0.00 0.00 0.00 90 1011.9
20260506072821 8 15 8.0 19.3 0.00 0.00 0.00 90 1012.0
20260506072009 8 343 9.7 19.3 0.00 0.00 0.00 90 1012.0
20260506071822 8 331 11.3 20.9 0.00 0.00 0.00 89 1011.9
20260506071009 8 353 11.3 20.9 0.00 0.00 0.00 90 1011.6
20260506070511 8 337 11.3 20.9 0.00 0.00 0.00 89 1011.6
20260506062005 8 332 11.3 24.1 0.00 0.00 0.00 91 1011.6
20260506061503 8 309 12.9 22.5 0.00 0.00 0.00 91 1011.6
20260506061312 8 322 12.9 22.5 0.00 0.00 0.00 92 1011.6
20260506060501 7 334 12.9 24.1 0.00 0.00 0.00 92 1011.6
20260506051005 6 341 9.7 17.7 0.00 0.00 0.00 95 1012.3
20260506050501 6 335 9.7 17.7 0.00 0.00 0.00 95 1012.4
20260506044957 6 310 9.7 17.7 0.00 0.00 0.00 95 1012.3
20260506044457 6 333 9.7 17.7 0.00 0.00 0.00 95 1012.3
20260506043958 6 336 9.7 17.7 0.00 0.00 0.00 95 1012.3
20260506043457 6 327 9.7 17.7 0.00 0.00 0.00 95 1012.3
20260506042957 5 343 9.7 17.7 0.00 0.00 0.00 95 1012.3
20260506042457 5 343 8.0 17.7 0.00 0.00 0.00 95 1012.4
20260506042311 5 324 8.0 16.1 0.00 0.00 0.00 95 1012.5
20260506041458 5 333 8.0 16.1 0.00 0.00 0.00 95 1012.6
20260506040957 5 311 8.0 16.1 0.00 0.00 0.00 95 1012.6
20260506040808 5 312 8.0 16.1 0.00 0.00 0.00 95 1012.7
20260506035953 5 321 8.0 16.1 0.00 0.00 0.00 95 1012.7
20260506035822 5 335 8.0 16.1 0.00 0.00 0.00 95 1012.6
20260506035047 5 338 6.4 14.5 0.00 0.00 0.00 95 1012.6
20260506033951 5 327 6.4 14.5 0.00 0.00 0.00 95 1012.9
20260506033453 5 329 4.8 9.7 0.00 0.00 0.00 95 1013.0
20260506032953 5 338 4.8 9.7 0.00 0.00 0.00 94 1013.1
20260506032453 5 327 4.8 11.3 0.00 0.00 0.00 94 1013.1
20260506031953 5 337 4.8 11.3 0.00 0.00 0.00 94 1013.1
20260506031451 5 347 4.8 11.3 0.00 0.00 0.00 94 1013.2
20260506030951 5 268 4.8 14.5 0.00 0.00 0.00 94 1013.3
20260506030449 5 302 4.8 14.5 0.00 0.00 0.00 93 1013.3
20260506025950 6 341 6.4 12.9 0.00 0.00 0.00 93 1013.3
20260506025445 6 315 6.4 16.1 0.00 0.00 0.00 93 1013.2
20260506024947 6 313 6.4 16.1 0.00 0.00 0.00 93 1013.2
20260506024449 6 307 6.4 12.9 0.00 0.00 0.00 93 1013.4
20260506023947 6 339 6.4 12.9 0.00 0.00 0.00 92 1013.2
20260506023448 6 338 6.4 16.1 0.00 0.00 0.00 92 1013.4
20260506022947 6 316 6.4 16.1 0.00 0.00 0.00 91 1013.4
20260506022451 6 310 4.8 11.3 0.00 0.00 0.00 90 1013.6
20260506021947 6 334 4.8 9.7 0.00 0.00 0.00 88 1013.6
20260506021447 6 339 6.4 12.9 0.00 0.00 0.00 87 1013.6
20260506020947 7 339 8.0 14.5 0.00 0.00 0.00 87 1013.5
20260506020448 7 344 8.0 14.5 0.00 0.00 0.00 85 1013.4
20260506015947 7 3 6.4 14.5 0.00 0.00 0.00 84 1013.4
20260506015443 7 349 6.4 14.5 0.00 0.00 0.00 84 1013.4
20260506014945 7 26 6.4 14.5 0.00 0.00 0.00 85 1013.5
20260506014750 7 341 6.4 14.5 0.00 0.00 0.00 84 1013.4
20260506013941 7 328 4.8 12.9 0.00 0.00 0.00 85 1013.4
20260506013440 7 337 4.8 14.5 0.00 0.00 0.00 85 1013.4
20260506012943 8 14 4.8 14.5 0.00 0.00 0.00 85 1013.4
20260506012443 8 340 4.8 16.1 0.00 0.00 0.00 85 1013.5
20260506011943 8 324 4.8 16.1 0.00 0.00 0.00 85 1013.5
20260506011442 8 319 4.8 12.9 0.00 0.00 0.00 86 1013.6
20260506010943 7 23 6.4 12.9 0.00 0.00 0.00 86 1013.5
20260506010442 7 340 6.4 12.9 0.00 0.00 0.00 86 1013.6
20260506010035 7 310 6.4 16.1 0.00 0.00 0.00 87 1013.6
20260506004936 7 309 6.4 16.1 0.00 0.00 0.00 87 1013.7
20260506004437 8 317 6.4 16.1 0.00 0.00 0.00 87 1013.7
20260506003937 8 327 8.0 17.7 0.00 0.00 0.00 86 1013.7
20260506003437 8 341 9.7 17.7 0.00 0.00 0.00 87 1013.7
20260506003248 8 336 9.7 17.7 0.00 0.00 0.00 86 1013.6
20260506002751 8 333 8.0 17.7 0.00 0.00 0.00 86 1013.7
20260506001937 8 329 8.0 17.7 0.00 0.00 0.00 85 1013.8
20260506001436 8 341 6.4 17.7 0.00 0.00 0.00 85 1013.8
20260506000936 8 329 8.0 19.3 0.00 0.00 0.00 84 1013.7
20260506000438 8 318 6.4 19.3 0.00 0.00 0.00 84 1013.7
20260506000241 8 326 6.4 17.7 0.00 0.00 0.00 83 1013.6
20260505235437 8 345 8.0 17.7 0.00 0.00 0.00 83 1013.5
20260505234935 8 344 8.0 19.3 0.00 0.00 0.00 82 1013.5
20260505234742 9 342 9.7 19.3 0.00 0.00 0.00 82 1013.4
20260505233933 9 330 6.4 17.7 0.00 0.00 0.00 82 1013.4
20260505233435 9 337 6.4 16.1 0.00 0.00 0.00 82 1013.5
20260505232935 9 351 6.4 16.1 0.00 0.00 0.00 82 1013.5
20260505232436 9 330 6.4 17.7 0.00 0.00 0.00 82 1013.5
20260505231936 9 347 8.0 19.3 0.00 0.00 0.00 82 1013.4
20260505231746 9 351 9.7 20.9 0.00 0.00 0.00 81 1013.5
20260505230936 9 23 8.0 20.9 0.00 0.00 0.00 81 1013.4
20260505230435 9 353 6.4 19.3 0.00 0.00 0.00 82 1013.5
20260505225935 9 307 6.4 19.3 0.00 0.00 0.00 82 1013.5
20260505225434 9 36 6.4 17.7 0.00 0.00 0.00 83 1013.6
20260505225243 9 336 6.4 17.7 0.00 0.00 0.00 83 1013.6
20260505224433 9 343 6.4 17.7 0.00 0.00 0.00 82 1013.6
20260505223935 9 326 6.4 19.3 0.00 0.00 0.00 82 1013.7
20260505223435 9 334 6.4 19.3 0.00 0.00 0.00 83 1013.7
20260505222934 9 332 6.4 19.3 0.00 0.00 0.00 83 1013.8
20260505222434 10 5 6.4 20.9 0.00 0.00 0.00 83 1013.7
20260505221932 10 58 6.4 20.9 0.00 0.00 0.00 81 1013.7
20260505221433 10 332 6.4 20.9 0.00 0.00 0.00 80 1013.7
20260505220933 10 333 4.8 17.7 0.00 0.00 0.00 80 1013.8
20260505220432 10 350 4.8 14.5 0.00 0.00 0.00 80 1013.8
20260505215933 10 28 4.8 14.5 0.00 0.00 0.00 80 1013.7
20260505215431 10 349 4.8 17.7 0.00 0.00 0.00 81 1013.7
20260505214931 10 341 4.8 17.7 0.00 0.00 0.00 81 1013.7
20260505214432 10 316 4.8 16.1 0.00 0.00 0.00 82 1013.8
20260505213934 10 316 4.8 16.1 0.00 0.00 0.00 82 1013.7
20260505213434 10 324 4.8 17.7 0.00 0.00 0.00 83 1013.6
20260505212932 10 348 6.4 17.7 0.00 0.00 0.00 83 1013.6
20260505212432 10 348 6.4 17.7 0.00 0.00 0.00 83 1013.6
20260505212301 10 73 4.8 17.7 0.00 0.00 0.00 83 1013.6
20260505211433 10 322 4.8 16.1 0.00 0.00 0.00 83 1013.6
20260505210932 10 313 4.8 16.1 0.00 0.00 0.00 83 1013.6
20260505210433 10 326 3.2 14.5 0.00 0.00 0.00 83 1013.7
20260505205931 10 22 3.2 14.5 0.00 0.00 0.00 83 1013.7
20260505205431 10 326 4.8 16.1 0.00 0.00 0.00 82 1013.7
20260505204931 10 318 4.8 16.1 0.00 0.00 0.00 82 1013.7
20260505204744 10 251 3.2 12.9 0.00 0.00 0.00 82 1013.7
20260505203931 10 21 4.8 16.1 0.00 0.00 0.00 82 1013.7
20260505203431 10 80 6.4 17.7 0.00 0.00 0.00 82 1013.6
20260505202931 10 331 6.4 17.7 0.00 0.00 0.00 82 1013.6
20260505202431 10 325 4.8 17.7 0.00 0.00 0.00 82 1013.6
20260505202300 10 334 4.8 16.1 0.00 0.00 0.00 81 1013.6
20260505201431 10 40 4.8 16.1 0.00 0.00 0.00 81 1013.6
20260505200932 10 66 4.8 16.1 0.00 0.00 0.00 81 1013.6
20260505200433 10 344 4.8 12.9 0.00 0.00 0.00 81 1013.4
20260505195933 10 3 3.2 11.3 0.00 0.00 0.00 81 1013.4
20260505195746 10 355 3.2 11.3 0.00 0.00 0.00 80 1013.4
20260505194948 10 24 3.2 12.9 0.00 0.00 0.00 80 1013.3
20260505194435 10 13 3.2 16.1 0.00 0.00 0.00 80 1013.4
20260505193933 10 32 3.2 16.1 0.00 0.00 0.00 80 1013.3
20260505193433 10 339 3.2 12.9 0.00 0.00 0.00 80 1013.3
20260505192932 11 343 4.8 14.5 0.00 0.00 0.00 80 1013.3
20260505192432 11 349 4.8 14.5 0.00 0.00 0.00 79 1013.3
20260505191937 11 2 6.4 17.7 0.00 0.00 0.00 78 1013.2
20260505191432 11 359 6.4 17.7 0.00 0.00 0.00 78 1013.2
20260505191248 11 347 4.8 17.7 0.00 0.00 0.00 77 1013.2
20260505190433 11 9 3.2 14.5 0.00 0.00 0.00 76 1013.2
20260505190239 11 343 4.8 17.7 0.00 0.00 0.00 76 1013.2
20260505185434 11 352 4.8 17.7 0.00 0.00 0.00 76 1013.1
20260505184932 11 11 4.8 19.3 0.00 0.00 0.00 76 1013.1
20260505184433 11 9 4.8 19.3 0.00 0.00 0.00 76 1012.9
20260505183932 11 341 3.2 14.5 0.00 0.00 0.00 75 1012.8
20260505183433 11 28 3.2 14.5 0.00 0.00 0.00 75 1012.8
20260505182933 12 37 4.8 16.1 0.00 0.00 0.00 74 1012.9
20260505182432 12 213 4.8 16.1 0.00 0.00 0.00 73 1012.9
20260505181932 12 337 4.8 14.5 0.00 0.00 0.00 72 1012.8
20260505181744 12 338 3.2 12.9 0.00 0.00 0.00 71 1012.7
20260505181245 12 58 3.2 14.5 0.00 0.00 0.00 71 1012.7
20260505180432 12 240 4.8 14.5 0.00 0.00 0.00 72 1012.7
20260505175933 12 48 4.8 14.5 0.00 0.00 0.00 72 1012.7
20260505175433 12 58 3.2 14.5 0.00 0.00 0.00 71 1012.7
20260505174934 12 30 3.2 12.9 0.00 0.00 0.00 71 1012.7
20260505174432 12 68 4.8 12.9 0.00 0.00 0.00 71 1012.7
20260505173932 12 63 4.8 12.9 0.00 0.00 0.00 71 1012.8
20260505173433 13 96 6.4 19.3 0.00 0.00 0.00 70 1012.7
20260505172931 13 351 6.4 19.3 0.00 0.00 0.00 68 1012.6
20260505172432 13 62 4.8 17.7 0.00 0.00 0.00 68 1012.6
20260505171931 13 319 4.8 17.7 0.00 0.00 0.00 67 1012.6
20260505171432 13 36 6.4 24.1 0.00 0.00 0.00 68 1012.5
20260505170931 13 93 4.8 24.1 0.00 0.00 0.00 67 1012.7
20260505170432 13 66 4.8 17.7 0.00 0.00 0.00 66 1012.6
20260505170244 14 76 4.8 17.7 0.00 0.00 0.00 65 1012.4
20260505165747 14 63 6.4 17.7 0.00 0.00 0.00 66 1012.3
20260505164932 14 230 6.4 17.7 0.00 0.00 0.00 65 1012.1
20260505164431 15 230 6.4 37.0 0.00 0.00 0.00 64 1011.8
20260505163931 15 228 6.4 37.0 0.00 0.00 0.00 65 1011.9
20260505163431 15 228 6.4 22.5 0.00 0.00 0.00 64 1011.6
20260505162931 15 227 6.4 22.5 0.00 0.00 0.00 65 1011.7
20260505162431 15 231 4.8 22.5 0.00 0.00 0.00 64 1011.5
20260505161934 15 229 4.8 12.9 0.00 0.00 0.00 63 1011.3
20260505161431 15 227 4.8 12.9 0.00 0.00 0.00 64 1010.8
20260505160932 15 229 4.8 12.9 0.00 0.00 0.00 65 1011.2
20260505160434 15 226 6.4 17.7 0.00 0.00 0.00 65 1011.9
20260505152932 15 229 6.4 12.9 0.00 0.00 0.00 63 1010.7
20260505152432 15 228 4.8 12.9 0.00 0.00 0.00 64 1010.8
20260505151932 15 231 4.8 14.5 0.00 0.00 0.00 64 1011.5
20260505151432 15 227 4.8 14.5 0.00 0.00 0.00 64 1011.5
20260505150930 15 231 4.8 9.7 0.00 0.00 0.00 64 1011.3
20260505150430 15 228 4.8 11.3 0.00 0.00 0.00 64 1011.4
20260505150242 15 230 4.8 14.5 0.00 0.00 0.00 65 1011.5
20260505140427 15 226 3.2 9.7 0.00 0.00 0.00 65 1011.7
20260505124926 16 231 6.4 16.1 0.00 0.00 0.00 65 1011.7
20260505124421 16 233 6.4 11.3 0.00 0.00 0.00 64 1011.9
20260505123921 16 227 4.8 9.7 0.00 0.00 0.00 64 1011.7
20260505123435 16 229 4.8 11.3 0.00 0.00 0.00 62 1011.2
20260505122928 16 226 4.8 14.5 0.00 0.00 0.00 62 1011.5
20260505122422 16 230 4.8 14.5 0.00 0.00 0.00 64 1011.6
20260505121921 16 331 6.4 17.7 0.00 0.00 0.00 65 1011.9
20260505121421 16 246 6.4 19.3 0.00 0.00 0.00 65 1012.1
20260505121232 16 359 9.7 20.9 0.00 0.00 0.00 65 1012.3
20260505120421 16 344 9.7 20.9 0.00 0.00 0.00 67 1012.4
20260505115923 17 345 8.0 20.9 0.00 0.00 0.00 62 1011.9
20260505115733 17 343 6.4 17.7 0.00 0.00 0.00 55 1009.7
20260505114923 17 355 4.8 17.7 0.00 0.00 0.00 53 1009.5
20260505114421 16 153 3.2 17.7 0.00 0.00 0.00 54 1009.8
20260505113921 16 64 3.2 11.3 0.00 0.00 0.00 55 1011.4
20260505113419 16 347 4.8 17.7 0.00 0.00 0.00 55 1012.7
20260505112919 16 357 6.4 17.7 0.00 0.00 0.00 56 1012.6
20260505112419 17 340 6.4 17.7 0.00 0.00 0.00 56 1010.9
20260505111920 17 48 4.8 17.7 0.00 0.00 0.00 55 1010.2
20260505111421 16 50 3.2 17.7 0.00 0.00 0.00 55 1010.2
20260505110920 16 240 4.8 17.7 0.00 0.00 0.00 56 1010.7
20260505110423 16 35 4.8 16.1 0.00 0.00 0.00 56 1011.3
20260505101914 15 37 4.8 14.5 0.00 0.00 0.00 63 1011.0
20260505101414 15 37 4.8 12.9 0.00 0.00 0.00 66 1011.2
20260505100915 15 33 4.8 11.3 0.00 0.00 0.00 66 1011.3
20260505100415 15 37 6.4 11.3 0.00 0.00 0.00 67 1011.3
20260505100012 15 34 4.8 14.5 0.00 0.00 0.00 67 1011.3